Year,Month,Day,Hour,Minute,Value (Times are PST for temperature in C)
2020,05,10,00,00,17.20
2020,05,10,00,01,17.30
2020,05,10,00,02,17.30
2020,05,10,00,03,17.30
2020,05,10,00,04,17.30
2020,05,10,00,05,17.30
2020,05,10,00,06,17.20
2020,05,10,00,07,17.10
2020,05,10,00,08,17.10
2020,05,10,00,09,17.10
2020,05,10,00,10,17.10
2020,05,10,00,11,17.20
2020,05,10,00,12,17.20
2020,05,10,00,13,17.30
2020,05,10,00,14,17.30
2020,05,10,00,15,17.20
2020,05,10,00,16,17.20
2020,05,10,00,17,17.10
2020,05,10,00,18,17.00
2020,05,10,00,19,16.90
2020,05,10,00,20,16.80
2020,05,10,00,21,16.80
2020,05,10,00,22,16.70
2020,05,10,00,23,16.70
2020,05,10,00,24,16.70
2020,05,10,00,25,16.70
2020,05,10,00,26,16.70
2020,05,10,00,27,16.80
2020,05,10,00,28,16.80
2020,05,10,00,29,16.80
2020,05,10,00,30,16.70
2020,05,10,00,31,16.70
2020,05,10,00,32,16.70
2020,05,10,00,33,16.60
2020,05,10,00,34,16.50
2020,05,10,00,35,16.40
2020,05,10,00,36,16.40
2020,05,10,00,37,16.20
2020,05,10,00,38,16.20
2020,05,10,00,39,16.10
2020,05,10,00,40,16.00
2020,05,10,00,41,16.00
2020,05,10,00,42,15.90
2020,05,10,00,43,15.90
2020,05,10,00,44,15.90
2020,05,10,00,45,15.80
2020,05,10,00,46,15.80
2020,05,10,00,47,15.80
2020,05,10,00,48,15.90
2020,05,10,00,49,15.90
2020,05,10,00,50,15.90
2020,05,10,00,51,15.80
2020,05,10,00,52,15.80
2020,05,10,00,53,15.80
2020,05,10,00,54,15.80
2020,05,10,00,55,15.80
2020,05,10,00,56,15.80
2020,05,10,00,57,15.90
2020,05,10,00,58,15.90
2020,05,10,00,59,15.90
2020,05,10,01,00,15.90
2020,05,10,01,01,15.80
2020,05,10,01,02,15.90
2020,05,10,01,03,15.90
2020,05,10,01,04,15.90
2020,05,10,01,05,15.90
2020,05,10,01,06,15.90
2020,05,10,01,07,15.90
2020,05,10,01,08,15.90
2020,05,10,01,09,16.00
2020,05,10,01,10,16.00
2020,05,10,01,11,16.10
2020,05,10,01,12,16.10
2020,05,10,01,13,16.10
2020,05,10,01,14,16.00
2020,05,10,01,15,16.00
2020,05,10,01,16,15.90
2020,05,10,01,17,15.90
2020,05,10,01,18,15.80
2020,05,10,01,19,15.80
2020,05,10,01,20,15.80
2020,05,10,01,21,15.80
2020,05,10,01,22,15.70
2020,05,10,01,23,15.60
2020,05,10,01,24,15.50
2020,05,10,01,25,15.40
2020,05,10,01,26,15.30
2020,05,10,01,27,15.20
2020,05,10,01,28,15.20
2020,05,10,01,29,15.20
2020,05,10,01,30,15.20
2020,05,10,01,31,15.10
2020,05,10,01,32,15.10
2020,05,10,01,33,15.10
2020,05,10,01,34,15.10
2020,05,10,01,35,15.10
2020,05,10,01,36,15.10
2020,05,10,01,37,15.00
2020,05,10,01,38,14.90
2020,05,10,01,39,14.90
2020,05,10,01,40,14.80
2020,05,10,01,41,14.70
2020,05,10,01,42,14.60
2020,05,10,01,43,14.60
2020,05,10,01,44,14.60
2020,05,10,01,45,14.60
2020,05,10,01,46,14.60
2020,05,10,01,47,14.50
2020,05,10,01,48,14.40
2020,05,10,01,49,14.40
2020,05,10,01,50,14.30
2020,05,10,01,51,14.40
2020,05,10,01,52,14.50
2020,05,10,01,53,14.70
2020,05,10,01,54,14.90
2020,05,10,01,55,15.10
2020,05,10,01,56,14.90
2020,05,10,01,57,14.60
2020,05,10,01,58,14.50
2020,05,10,01,59,14.50
2020,05,10,02,00,14.50
2020,05,10,02,01,14.50
2020,05,10,02,02,14.50
2020,05,10,02,03,15.60
2020,05,10,02,04,16.20
2020,05,10,02,05,16.30
2020,05,10,02,06,16.30
2020,05,10,02,07,16.30
2020,05,10,02,08,16.20
2020,05,10,02,09,16.00
2020,05,10,02,10,15.70
2020,05,10,02,11,15.30
2020,05,10,02,12,15.20
2020,05,10,02,13,15.60
2020,05,10,02,14,16.10
2020,05,10,02,15,16.50
2020,05,10,02,16,16.60
2020,05,10,02,17,16.80
2020,05,10,02,18,16.90
2020,05,10,02,19,17.00
2020,05,10,02,20,17.00
2020,05,10,02,21,16.90
2020,05,10,02,22,16.90
2020,05,10,02,23,16.90
2020,05,10,02,24,17.00
2020,05,10,02,25,17.00
2020,05,10,02,26,16.90
2020,05,10,02,27,16.80
2020,05,10,02,28,16.90
2020,05,10,02,29,16.90
2020,05,10,02,30,16.90
2020,05,10,02,31,16.90
2020,05,10,02,32,16.90
2020,05,10,02,33,16.90
2020,05,10,02,34,16.90
2020,05,10,02,35,17.00
2020,05,10,02,36,17.20
2020,05,10,02,37,17.20
2020,05,10,02,38,17.10
2020,05,10,02,39,16.90
2020,05,10,02,40,16.60
2020,05,10,02,41,16.40
2020,05,10,02,42,16.20
2020,05,10,02,43,15.90
2020,05,10,02,44,15.80
2020,05,10,02,45,15.80
2020,05,10,02,46,15.90
2020,05,10,02,47,16.10
2020,05,10,02,48,16.30
2020,05,10,02,49,16.60
2020,05,10,02,50,16.60
2020,05,10,02,51,16.60
2020,05,10,02,52,16.50
2020,05,10,02,53,16.50
2020,05,10,02,54,16.50
2020,05,10,02,55,16.50
2020,05,10,02,56,16.50
2020,05,10,02,57,16.60
2020,05,10,02,58,16.60
2020,05,10,02,59,16.80
2020,05,10,03,00,16.90
2020,05,10,03,01,16.90
2020,05,10,03,02,16.80
2020,05,10,03,03,16.70
2020,05,10,03,04,16.50
2020,05,10,03,05,16.50
2020,05,10,03,06,16.60
2020,05,10,03,07,16.70
2020,05,10,03,08,16.70
2020,05,10,03,09,16.60
2020,05,10,03,10,16.70
2020,05,10,03,11,16.90
2020,05,10,03,12,17.10
2020,05,10,03,13,17.30
2020,05,10,03,14,17.40
2020,05,10,03,15,17.50
2020,05,10,03,16,17.40
2020,05,10,03,17,17.40
2020,05,10,03,18,17.30
2020,05,10,03,19,17.20
2020,05,10,03,20,17.10
2020,05,10,03,21,17.00
2020,05,10,03,22,16.90
2020,05,10,03,23,16.80
2020,05,10,03,24,16.70
2020,05,10,03,25,16.70
2020,05,10,03,26,16.80
2020,05,10,03,27,16.90
2020,05,10,03,28,17.00
2020,05,10,03,29,17.00
2020,05,10,03,30,17.00
2020,05,10,03,31,16.80
2020,05,10,03,32,16.70
2020,05,10,03,33,16.80
2020,05,10,03,34,16.90
2020,05,10,03,35,17.00
2020,05,10,03,36,17.00
2020,05,10,03,37,17.00
2020,05,10,03,38,16.90
2020,05,10,03,39,16.80
2020,05,10,03,40,16.90
2020,05,10,03,41,16.90
2020,05,10,03,42,16.90
2020,05,10,03,43,16.80
2020,05,10,03,44,16.70
2020,05,10,03,45,16.70
2020,05,10,03,46,16.80
2020,05,10,03,47,17.00
2020,05,10,03,48,17.00
2020,05,10,03,49,17.10
2020,05,10,03,50,17.20
2020,05,10,03,51,17.20
2020,05,10,03,52,17.30
2020,05,10,03,53,17.30
2020,05,10,03,54,17.30
2020,05,10,03,55,17.30
2020,05,10,03,56,17.20
2020,05,10,03,57,17.20
2020,05,10,03,58,17.10
2020,05,10,03,59,17.00
2020,05,10,04,00,17.00
2020,05,10,04,01,17.00
2020,05,10,04,02,17.10
2020,05,10,04,03,17.10
2020,05,10,04,04,17.10
2020,05,10,04,05,17.10
2020,05,10,04,06,17.00
2020,05,10,04,07,17.10
2020,05,10,04,08,17.10
2020,05,10,04,09,17.20
2020,05,10,04,10,17.20
2020,05,10,04,11,17.20
2020,05,10,04,12,17.10
2020,05,10,04,13,17.00
2020,05,10,04,14,16.90
2020,05,10,04,15,16.90
2020,05,10,04,16,16.90
2020,05,10,04,17,17.00
2020,05,10,04,18,17.10
2020,05,10,04,19,17.20
2020,05,10,04,20,17.20
2020,05,10,04,21,17.20
2020,05,10,04,22,17.10
2020,05,10,04,23,17.10
2020,05,10,04,24,17.00
2020,05,10,04,25,17.00
2020,05,10,04,26,16.80
2020,05,10,04,27,16.70
2020,05,10,04,28,16.50
2020,05,10,04,29,16.40
2020,05,10,04,30,16.30
2020,05,10,04,31,16.10
2020,05,10,04,32,16.20
2020,05,10,04,33,16.40
2020,05,10,04,34,16.60
2020,05,10,04,35,16.70
2020,05,10,04,36,16.80
2020,05,10,04,37,16.80
2020,05,10,04,38,16.80
2020,05,10,04,39,16.80
2020,05,10,04,40,16.70
2020,05,10,04,41,16.60
2020,05,10,04,42,16.60
2020,05,10,04,43,16.50
2020,05,10,04,44,16.60
2020,05,10,04,45,16.60
2020,05,10,04,46,16.60
2020,05,10,04,47,16.60
2020,05,10,04,48,16.40
2020,05,10,04,49,16.20
2020,05,10,04,50,16.20
2020,05,10,04,51,16.30
2020,05,10,04,52,16.20
2020,05,10,04,53,16.20
2020,05,10,04,54,16.30
2020,05,10,04,55,16.30
2020,05,10,04,56,16.30
2020,05,10,04,57,16.20
2020,05,10,04,58,16.00
2020,05,10,04,59,15.80
2020,05,10,05,00,15.60
2020,05,10,05,01,15.20
2020,05,10,05,02,15.10
2020,05,10,05,03,15.00
2020,05,10,05,04,15.00
2020,05,10,05,05,15.20
2020,05,10,05,06,15.30
2020,05,10,05,07,15.60
2020,05,10,05,08,15.80
2020,05,10,05,09,15.90
2020,05,10,05,10,15.90
2020,05,10,05,11,15.90
2020,05,10,05,12,15.90
2020,05,10,05,13,16.00
2020,05,10,05,14,15.90
2020,05,10,05,15,16.00
2020,05,10,05,16,16.10
2020,05,10,05,17,16.10
2020,05,10,05,18,16.10
2020,05,10,05,19,16.10
2020,05,10,05,20,16.00
2020,05,10,05,21,15.90
2020,05,10,05,22,15.80
2020,05,10,05,23,15.80
2020,05,10,05,24,15.80
2020,05,10,05,25,15.80
2020,05,10,05,26,15.90
2020,05,10,05,27,15.90
2020,05,10,05,28,15.90
2020,05,10,05,29,16.00
2020,05,10,05,30,16.00
2020,05,10,05,31,16.10
2020,05,10,05,32,16.30
2020,05,10,05,33,16.40
2020,05,10,05,34,16.40
2020,05,10,05,35,16.50
2020,05,10,05,36,16.60
2020,05,10,05,37,16.60
2020,05,10,05,38,16.60
2020,05,10,05,39,16.60
2020,05,10,05,40,16.60
2020,05,10,05,41,16.60
2020,05,10,05,42,16.70
2020,05,10,05,43,16.60
2020,05,10,05,44,16.30
2020,05,10,05,45,16.20
2020,05,10,05,46,16.20
2020,05,10,05,47,16.40
2020,05,10,05,48,16.40
2020,05,10,05,49,16.40
2020,05,10,05,50,16.50
2020,05,10,05,51,16.80
2020,05,10,05,52,16.90
2020,05,10,05,53,16.90
2020,05,10,05,54,16.90
2020,05,10,05,55,16.90
2020,05,10,05,56,16.80
2020,05,10,05,57,16.80
2020,05,10,05,58,16.80
2020,05,10,05,59,16.80
2020,05,10,06,00,17.00
2020,05,10,06,01,17.10
2020,05,10,06,02,17.00
2020,05,10,06,03,16.90
2020,05,10,06,04,16.70
2020,05,10,06,05,16.40
2020,05,10,06,06,16.40
2020,05,10,06,07,16.50
2020,05,10,06,08,16.50
2020,05,10,06,09,16.30
2020,05,10,06,10,16.00
2020,05,10,06,11,16.00
2020,05,10,06,12,16.10
2020,05,10,06,13,16.20
2020,05,10,06,14,16.10
2020,05,10,06,15,16.30
2020,05,10,06,16,16.50
2020,05,10,06,17,16.60
2020,05,10,06,18,16.50
2020,05,10,06,19,16.60
2020,05,10,06,20,16.70
2020,05,10,06,21,16.80
2020,05,10,06,22,16.80
2020,05,10,06,23,16.70
2020,05,10,06,24,16.70
2020,05,10,06,25,16.80
2020,05,10,06,26,16.80
2020,05,10,06,27,16.90
2020,05,10,06,28,16.90
2020,05,10,06,29,16.90
2020,05,10,06,30,16.90
2020,05,10,06,31,16.90
2020,05,10,06,32,16.90
2020,05,10,06,33,16.70
2020,05,10,06,34,16.60
2020,05,10,06,35,16.40
2020,05,10,06,36,16.50
2020,05,10,06,37,16.60
2020,05,10,06,38,16.60
2020,05,10,06,39,16.50
2020,05,10,06,40,16.40
2020,05,10,06,41,16.40
2020,05,10,06,42,16.30
2020,05,10,06,43,16.50
2020,05,10,06,44,16.40
2020,05,10,06,45,16.20
2020,05,10,06,46,16.00
2020,05,10,06,47,15.80
2020,05,10,06,48,15.70
2020,05,10,06,49,15.60
2020,05,10,06,50,15.60
2020,05,10,06,51,15.50
2020,05,10,06,52,15.50
2020,05,10,06,53,15.50
2020,05,10,06,54,15.40
2020,05,10,06,55,15.30
2020,05,10,06,56,15.20
2020,05,10,06,57,15.20
2020,05,10,06,58,15.20
2020,05,10,06,59,15.10
2020,05,10,07,00,15.10
2020,05,10,07,01,15.10
2020,05,10,07,02,15.20
2020,05,10,07,03,15.50
2020,05,10,07,04,15.60
2020,05,10,07,05,15.50
2020,05,10,07,06,15.40
2020,05,10,07,07,15.40
2020,05,10,07,08,15.20
2020,05,10,07,09,15.20
2020,05,10,07,10,15.20
2020,05,10,07,11,15.20
2020,05,10,07,12,15.30
2020,05,10,07,13,15.60
2020,05,10,07,14,15.90
2020,05,10,07,15,16.00
2020,05,10,07,16,16.10
2020,05,10,07,17,16.00
2020,05,10,07,18,16.10
2020,05,10,07,19,16.10
2020,05,10,07,20,16.20
2020,05,10,07,21,16.10
2020,05,10,07,22,16.10
2020,05,10,07,23,16.00
2020,05,10,07,24,16.00
2020,05,10,07,25,16.10
2020,05,10,07,26,16.20
2020,05,10,07,27,16.30
2020,05,10,07,28,16.30
2020,05,10,07,29,16.30
2020,05,10,07,30,16.40
2020,05,10,07,31,16.40
2020,05,10,07,32,16.50
2020,05,10,07,33,16.40
2020,05,10,07,34,16.20
2020,05,10,07,35,16.30
2020,05,10,07,36,16.30
2020,05,10,07,37,16.20
2020,05,10,07,38,16.30
2020,05,10,07,39,16.30
2020,05,10,07,40,16.50
2020,05,10,07,41,16.70
2020,05,10,07,42,16.80
2020,05,10,07,43,16.90
2020,05,10,07,44,16.90
2020,05,10,07,45,16.90
2020,05,10,07,46,16.80
2020,05,10,07,47,16.90
2020,05,10,07,48,17.00
2020,05,10,07,49,17.10
2020,05,10,07,50,17.10
2020,05,10,07,51,17.10
2020,05,10,07,52,17.10
2020,05,10,07,53,17.20
2020,05,10,07,54,17.30
2020,05,10,07,55,17.30
2020,05,10,07,56,17.40
2020,05,10,07,57,17.40
2020,05,10,07,58,17.50
2020,05,10,07,59,17.60
2020,05,10,08,00,17.60
2020,05,10,08,01,17.60
2020,05,10,08,02,17.70
2020,05,10,08,03,17.70
2020,05,10,08,04,17.70
2020,05,10,08,05,17.70
2020,05,10,08,06,17.70
2020,05,10,08,07,17.70
2020,05,10,08,08,17.70
2020,05,10,08,09,17.70
2020,05,10,08,10,17.70
2020,05,10,08,11,17.70
2020,05,10,08,12,17.70
2020,05,10,08,13,17.70
2020,05,10,08,14,17.70
2020,05,10,08,15,17.70
2020,05,10,08,16,17.70
2020,05,10,08,17,17.60
2020,05,10,08,18,17.60
2020,05,10,08,19,17.60
2020,05,10,08,20,17.60
2020,05,10,08,21,17.60
2020,05,10,08,22,17.60
2020,05,10,08,23,17.50
2020,05,10,08,24,17.40
2020,05,10,08,25,17.40
2020,05,10,08,26,17.40
2020,05,10,08,27,17.50
2020,05,10,08,28,17.60
2020,05,10,08,29,17.60
2020,05,10,08,30,17.60
2020,05,10,08,31,17.60
2020,05,10,08,32,17.50
2020,05,10,08,33,17.60
2020,05,10,08,34,17.40
2020,05,10,08,35,17.40
2020,05,10,08,36,17.30
2020,05,10,08,37,17.20
2020,05,10,08,38,17.40
2020,05,10,08,39,17.50
2020,05,10,08,40,17.60
2020,05,10,08,41,17.70
2020,05,10,08,42,17.70
2020,05,10,08,43,17.60
2020,05,10,08,44,17.50
2020,05,10,08,45,17.40
2020,05,10,08,46,17.40
2020,05,10,08,47,17.40
2020,05,10,08,48,17.50
2020,05,10,08,49,17.50
2020,05,10,08,50,17.60
2020,05,10,08,51,17.60
2020,05,10,08,52,17.70
2020,05,10,08,53,17.70
2020,05,10,08,54,17.70
2020,05,10,08,55,17.80
2020,05,10,08,56,17.70
2020,05,10,08,57,17.70
2020,05,10,08,58,17.70
2020,05,10,08,59,17.70
2020,05,10,09,00,17.80
2020,05,10,09,01,17.70
2020,05,10,09,02,17.80
2020,05,10,09,03,17.80
2020,05,10,09,04,17.80
2020,05,10,09,05,17.80
2020,05,10,09,06,17.90
2020,05,10,09,07,17.90
2020,05,10,09,08,17.80
2020,05,10,09,09,17.80
2020,05,10,09,10,17.80
2020,05,10,09,11,17.70
2020,05,10,09,12,17.70
2020,05,10,09,13,17.80
2020,05,10,09,14,17.80
2020,05,10,09,15,17.70
2020,05,10,09,16,17.80
2020,05,10,09,17,17.80
2020,05,10,09,18,17.70
2020,05,10,09,19,17.60
2020,05,10,09,20,17.60
2020,05,10,09,21,17.50
2020,05,10,09,22,17.50
2020,05,10,09,23,17.50
2020,05,10,09,24,17.60
2020,05,10,09,25,17.60
2020,05,10,09,26,17.60
2020,05,10,09,27,17.50
2020,05,10,09,28,17.50
2020,05,10,09,29,17.50
2020,05,10,09,30,17.40
2020,05,10,09,31,17.50
2020,05,10,09,32,17.50
2020,05,10,09,33,17.60
2020,05,10,09,34,17.70
2020,05,10,09,35,17.70
2020,05,10,09,36,17.80
2020,05,10,09,37,17.80
2020,05,10,09,38,17.70
2020,05,10,09,39,17.80
2020,05,10,09,40,17.80
2020,05,10,09,41,17.80
2020,05,10,09,42,17.90
2020,05,10,09,43,17.90
2020,05,10,09,44,18.00
2020,05,10,09,45,18.10
2020,05,10,09,46,18.10
2020,05,10,09,47,18.20
2020,05,10,09,48,18.20
2020,05,10,09,49,18.20
2020,05,10,09,50,18.20
2020,05,10,09,51,18.20
2020,05,10,09,52,18.20
2020,05,10,09,53,18.20
2020,05,10,09,54,18.20
2020,05,10,09,55,18.20
2020,05,10,09,56,18.20
2020,05,10,09,57,18.20
2020,05,10,09,58,18.30
2020,05,10,09,59,18.30
2020,05,10,10,00,18.30
2020,05,10,10,01,18.30
2020,05,10,10,02,18.30
2020,05,10,10,03,18.30
2020,05,10,10,04,18.40
2020,05,10,10,05,18.40
2020,05,10,10,06,18.40
2020,05,10,10,07,18.50
2020,05,10,10,08,18.50
2020,05,10,10,09,18.50
2020,05,10,10,10,18.50
2020,05,10,10,11,18.60
2020,05,10,10,12,18.60
2020,05,10,10,13,18.60
2020,05,10,10,14,18.60
2020,05,10,10,15,18.60
2020,05,10,10,16,18.60
2020,05,10,10,17,18.50
2020,05,10,10,18,18.50
2020,05,10,10,19,18.50
2020,05,10,10,20,18.50
2020,05,10,10,21,18.50
2020,05,10,10,22,18.60
2020,05,10,10,23,18.60
2020,05,10,10,24,18.60
2020,05,10,10,25,18.60
2020,05,10,10,26,18.60
2020,05,10,10,27,18.60
2020,05,10,10,28,18.60
2020,05,10,10,29,18.60
2020,05,10,10,30,18.60
2020,05,10,10,31,18.70
2020,05,10,10,32,18.70
2020,05,10,10,33,18.70
2020,05,10,10,34,18.70
2020,05,10,10,35,18.70
2020,05,10,10,36,18.70
2020,05,10,10,37,18.70
2020,05,10,10,38,18.70
2020,05,10,10,39,18.70
2020,05,10,10,40,18.70
2020,05,10,10,41,18.70
2020,05,10,10,42,18.80
2020,05,10,10,43,18.80
2020,05,10,10,44,18.80
2020,05,10,10,45,18.90
2020,05,10,10,46,18.90
2020,05,10,10,47,18.90
2020,05,10,10,48,18.90
2020,05,10,10,49,18.90
2020,05,10,10,50,18.90
2020,05,10,10,51,19.00
2020,05,10,10,52,19.10
2020,05,10,10,53,19.00
2020,05,10,10,54,19.00
2020,05,10,10,55,19.10
2020,05,10,10,56,19.10
2020,05,10,10,57,19.10
2020,05,10,10,58,19.10
2020,05,10,10,59,19.10
2020,05,10,11,00,19.10
2020,05,10,11,01,19.10
2020,05,10,11,02,19.10
2020,05,10,11,03,19.10
2020,05,10,11,04,19.10
2020,05,10,11,05,19.20
2020,05,10,11,06,19.20
2020,05,10,11,07,19.20
2020,05,10,11,08,19.10
2020,05,10,11,09,19.20
2020,05,10,11,10,19.20
2020,05,10,11,11,19.30
2020,05,10,11,12,19.30
2020,05,10,11,13,19.30
2020,05,10,11,14,19.30
2020,05,10,11,15,19.30
2020,05,10,11,16,19.30
2020,05,10,11,17,19.40
2020,05,10,11,18,19.50
2020,05,10,11,19,19.50
2020,05,10,11,20,19.50
2020,05,10,11,21,19.50
2020,05,10,11,22,19.50
2020,05,10,11,23,19.50
2020,05,10,11,24,19.50
2020,05,10,11,25,19.50
2020,05,10,11,26,19.50
2020,05,10,11,27,19.60
2020,05,10,11,28,19.60
2020,05,10,11,29,19.70
2020,05,10,11,30,19.80
2020,05,10,11,31,19.80
2020,05,10,11,32,19.90
2020,05,10,11,33,19.90
2020,05,10,11,34,19.90
2020,05,10,11,35,19.90
2020,05,10,11,36,19.90
2020,05,10,11,37,19.90
2020,05,10,11,38,20.00
2020,05,10,11,39,20.00
2020,05,10,11,40,20.10
2020,05,10,11,41,20.10
2020,05,10,11,42,20.10
2020,05,10,11,43,20.10
2020,05,10,11,44,20.10
2020,05,10,11,45,20.10
2020,05,10,11,46,20.20
2020,05,10,11,47,20.20
2020,05,10,11,48,20.20
2020,05,10,11,49,20.10
2020,05,10,11,50,20.10
2020,05,10,11,51,20.10
2020,05,10,11,52,20.20
2020,05,10,11,53,20.30
2020,05,10,11,54,20.40
2020,05,10,11,55,20.40
2020,05,10,11,56,20.40
2020,05,10,11,57,20.50
2020,05,10,11,58,20.50
2020,05,10,11,59,20.40
2020,05,10,12,00,20.40
2020,05,10,12,01,20.40
2020,05,10,12,02,20.40
2020,05,10,12,03,20.30
2020,05,10,12,04,20.40
2020,05,10,12,05,20.40
2020,05,10,12,06,20.40
2020,05,10,12,07,20.30
2020,05,10,12,08,20.30
2020,05,10,12,09,20.40
2020,05,10,12,10,20.40
2020,05,10,12,11,20.40
2020,05,10,12,12,20.40
2020,05,10,12,13,20.40
2020,05,10,12,14,20.50
2020,05,10,12,15,20.50
2020,05,10,12,16,20.50
2020,05,10,12,17,20.50
2020,05,10,12,18,20.50
2020,05,10,12,19,20.50
2020,05,10,12,20,20.50
2020,05,10,12,21,20.50
2020,05,10,12,22,20.40
2020,05,10,12,23,20.40
2020,05,10,12,24,20.50
2020,05,10,12,25,20.50
2020,05,10,12,26,20.50
2020,05,10,12,27,20.50
2020,05,10,12,28,20.50
2020,05,10,12,29,20.60
2020,05,10,12,30,20.60
2020,05,10,12,31,20.60
2020,05,10,12,32,20.60
2020,05,10,12,33,20.60
2020,05,10,12,34,20.60
2020,05,10,12,35,20.60
2020,05,10,12,36,20.60
2020,05,10,12,37,20.60
2020,05,10,12,38,20.60
2020,05,10,12,39,20.60
2020,05,10,12,40,20.60
2020,05,10,12,41,20.60
2020,05,10,12,42,20.70
2020,05,10,12,43,20.70
2020,05,10,12,44,20.70
2020,05,10,12,45,20.60
2020,05,10,12,46,20.60
2020,05,10,12,47,20.60
2020,05,10,12,48,20.70
2020,05,10,12,49,20.70
2020,05,10,12,50,20.70
2020,05,10,12,51,20.80
2020,05,10,12,52,20.80
2020,05,10,12,53,20.80
2020,05,10,12,54,20.80
2020,05,10,12,55,20.80
2020,05,10,12,56,20.90
2020,05,10,12,57,20.90
2020,05,10,12,58,20.90
2020,05,10,12,59,21.00
2020,05,10,13,00,21.00
2020,05,10,13,01,21.10
2020,05,10,13,02,21.10
2020,05,10,13,03,21.10
2020,05,10,13,04,21.10
2020,05,10,13,05,21.10
2020,05,10,13,06,21.10
2020,05,10,13,07,21.20
2020,05,10,13,08,21.20
2020,05,10,13,09,21.20
2020,05,10,13,10,21.20
2020,05,10,13,11,21.20
2020,05,10,13,12,21.30
2020,05,10,13,13,21.30
2020,05,10,13,14,21.30
2020,05,10,13,15,21.30
2020,05,10,13,16,21.30
2020,05,10,13,17,21.40
2020,05,10,13,18,21.40
2020,05,10,13,19,21.40
2020,05,10,13,20,21.40
2020,05,10,13,21,21.50
2020,05,10,13,22,21.60
2020,05,10,13,23,21.60
2020,05,10,13,24,21.50
2020,05,10,13,25,21.50
2020,05,10,13,26,21.50
2020,05,10,13,27,21.50
2020,05,10,13,28,21.50
2020,05,10,13,29,21.60
2020,05,10,13,30,21.60
2020,05,10,13,31,21.60
2020,05,10,13,32,21.60
2020,05,10,13,33,21.60
2020,05,10,13,34,21.50
2020,05,10,13,35,21.60
2020,05,10,13,36,21.60
2020,05,10,13,37,21.60
2020,05,10,13,38,21.60
2020,05,10,13,39,21.70
2020,05,10,13,40,21.70
2020,05,10,13,41,21.70
2020,05,10,13,42,21.70
2020,05,10,13,43,21.70
2020,05,10,13,44,21.80
2020,05,10,13,45,21.80
2020,05,10,13,46,21.80
2020,05,10,13,47,21.80
2020,05,10,13,48,21.80
2020,05,10,13,49,21.80
2020,05,10,13,50,21.80
2020,05,10,13,51,21.80
2020,05,10,13,52,21.70
2020,05,10,13,53,21.70
2020,05,10,13,54,21.80
2020,05,10,13,55,21.80
2020,05,10,13,56,21.90
2020,05,10,13,57,22.00
2020,05,10,13,58,22.00
2020,05,10,13,59,22.10
2020,05,10,14,00,22.20
2020,05,10,14,01,22.30
2020,05,10,14,02,22.30
2020,05,10,14,03,22.30
2020,05,10,14,04,22.30
2020,05,10,14,05,22.30
2020,05,10,14,06,22.40
2020,05,10,14,07,22.40
2020,05,10,14,08,22.50
2020,05,10,14,09,22.60
2020,05,10,14,10,22.60
2020,05,10,14,11,22.60
2020,05,10,14,12,22.70
2020,05,10,14,13,22.70
2020,05,10,14,14,22.70
2020,05,10,14,15,22.80
2020,05,10,14,16,22.80
2020,05,10,14,17,22.80
2020,05,10,14,18,22.70
2020,05,10,14,19,22.70
2020,05,10,14,20,22.70
2020,05,10,14,21,22.70
2020,05,10,14,22,22.60
2020,05,10,14,23,22.60
2020,05,10,14,24,22.50
2020,05,10,14,25,22.40
2020,05,10,14,26,22.30
2020,05,10,14,27,22.30
2020,05,10,14,28,22.30
2020,05,10,14,29,22.30
2020,05,10,14,30,22.30
2020,05,10,14,31,22.40
2020,05,10,14,32,22.40
2020,05,10,14,33,22.40
2020,05,10,14,34,22.50
2020,05,10,14,35,22.50
2020,05,10,14,36,22.50
2020,05,10,14,37,22.50
2020,05,10,14,38,22.60
2020,05,10,14,39,22.60
2020,05,10,14,40,22.70
2020,05,10,14,41,22.70
2020,05,10,14,42,22.70
2020,05,10,14,43,22.70
2020,05,10,14,44,22.70
2020,05,10,14,45,22.80
2020,05,10,14,46,22.80
2020,05,10,14,47,22.80
2020,05,10,14,48,22.80
2020,05,10,14,49,22.90
2020,05,10,14,50,22.90
2020,05,10,14,51,22.90
2020,05,10,14,52,23.00
2020,05,10,14,53,23.00
2020,05,10,14,54,23.00
2020,05,10,14,55,23.00
2020,05,10,14,56,23.00
2020,05,10,14,57,23.00
2020,05,10,14,58,23.10
2020,05,10,14,59,23.10
2020,05,10,15,00,23.20
2020,05,10,15,01,23.20
2020,05,10,15,02,23.30
2020,05,10,15,03,23.40
2020,05,10,15,04,23.40
2020,05,10,15,05,23.50
2020,05,10,15,06,23.60
2020,05,10,15,07,23.60
2020,05,10,15,08,23.60
2020,05,10,15,09,23.60
2020,05,10,15,10,23.70
2020,05,10,15,11,23.60
2020,05,10,15,12,23.60
2020,05,10,15,13,23.60
2020,05,10,15,14,23.60
2020,05,10,15,15,23.60
2020,05,10,15,16,23.60
2020,05,10,15,17,23.60
2020,05,10,15,18,23.60
2020,05,10,15,19,23.60
2020,05,10,15,20,23.60
2020,05,10,15,21,23.60
2020,05,10,15,22,23.50
2020,05,10,15,23,23.60
2020,05,10,15,24,23.50
2020,05,10,15,25,23.50
2020,05,10,15,26,23.60
2020,05,10,15,27,23.60
2020,05,10,15,28,23.60
2020,05,10,15,29,23.60
2020,05,10,15,30,23.70
2020,05,10,15,31,23.70
2020,05,10,15,32,23.70
2020,05,10,15,33,23.80
2020,05,10,15,34,23.80
2020,05,10,15,35,23.70
2020,05,10,15,36,23.70
2020,05,10,15,37,23.70
2020,05,10,15,38,23.70
2020,05,10,15,39,23.80
2020,05,10,15,40,23.80
2020,05,10,15,41,23.80
2020,05,10,15,42,23.80
2020,05,10,15,43,23.80
2020,05,10,15,44,23.80
2020,05,10,15,45,23.80
2020,05,10,15,46,23.80
2020,05,10,15,47,23.80
2020,05,10,15,48,23.80
2020,05,10,15,49,23.80
2020,05,10,15,50,23.80
2020,05,10,15,51,23.80
2020,05,10,15,52,23.80
2020,05,10,15,53,23.80
2020,05,10,15,54,23.90
2020,05,10,15,55,23.90
2020,05,10,15,56,23.90
2020,05,10,15,57,23.80
2020,05,10,15,58,23.80
2020,05,10,15,59,23.90
2020,05,10,16,00,23.80
2020,05,10,16,01,23.80
2020,05,10,16,02,23.90
2020,05,10,16,03,23.90
2020,05,10,16,04,23.90
2020,05,10,16,05,24.00
2020,05,10,16,06,24.00
2020,05,10,16,07,24.10
2020,05,10,16,08,24.10
2020,05,10,16,09,24.20
2020,05,10,16,10,24.20
2020,05,10,16,11,24.20
2020,05,10,16,12,24.20
2020,05,10,16,13,24.20
2020,05,10,16,14,24.30
2020,05,10,16,15,24.30
2020,05,10,16,16,24.30
2020,05,10,16,17,24.30
2020,05,10,16,18,24.40
2020,05,10,16,19,24.40
2020,05,10,16,20,24.40
2020,05,10,16,21,24.40
2020,05,10,16,22,24.40
2020,05,10,16,23,24.40
2020,05,10,16,24,24.30
2020,05,10,16,25,24.30
2020,05,10,16,26,24.40
2020,05,10,16,27,24.40
2020,05,10,16,28,24.40
2020,05,10,16,29,24.40
2020,05,10,16,30,24.40
2020,05,10,16,31,24.40
2020,05,10,16,32,24.50
2020,05,10,16,33,24.60
2020,05,10,16,34,24.60
2020,05,10,16,35,24.60
2020,05,10,16,36,24.60
2020,05,10,16,37,24.50
2020,05,10,16,38,24.50
2020,05,10,16,39,24.40
2020,05,10,16,40,24.40
2020,05,10,16,41,24.40
2020,05,10,16,42,24.30
2020,05,10,16,43,24.30
2020,05,10,16,44,24.30
2020,05,10,16,45,24.20
2020,05,10,16,46,24.20
2020,05,10,16,47,24.20
2020,05,10,16,48,24.20
2020,05,10,16,49,24.30
2020,05,10,16,50,24.20
2020,05,10,16,51,24.20
2020,05,10,16,52,24.20
2020,05,10,16,53,24.10
2020,05,10,16,54,24.00
2020,05,10,16,55,24.00
2020,05,10,16,56,24.10
2020,05,10,16,57,24.10
2020,05,10,16,58,24.10
2020,05,10,16,59,24.00
2020,05,10,17,00,23.80
2020,05,10,17,01,23.70
2020,05,10,17,02,23.70
2020,05,10,17,03,23.70
2020,05,10,17,04,23.80
2020,05,10,17,05,23.80
2020,05,10,17,06,23.80
2020,05,10,17,07,23.90
2020,05,10,17,08,23.80
2020,05,10,17,09,23.80
2020,05,10,17,10,23.80
2020,05,10,17,11,23.90
2020,05,10,17,12,23.90
2020,05,10,17,13,23.90
2020,05,10,17,14,23.90
2020,05,10,17,15,23.90
2020,05,10,17,16,23.80
2020,05,10,17,17,23.80
2020,05,10,17,18,23.70
2020,05,10,17,19,23.60